Weather History for KRBG - December, 2012

Change the Weather History Date:

Thursday, December 6, 2012

  Actual Average Record
Temperature  
Mean Temperature 42 °F 43 °F  
Max Temperature 46 °F 48 °F 64 °F (1970)
Min Temperature 38 °F 37 °F 8 °F (1972)
Degree Days  
Heating Degree Days 23 22  
Month to date heating degree days 100 132  
Since 1 July heating degree days 802 1061  
Cooling Degree Days 0 0  
Month to date cooling degree days 0 0  
Year to date cooling degree days 496 480  
Moisture  
Dew Point 38 °F    
Average Humidity 88    
Maximum Humidity 100    
Minimum Humidity 76    
Precipitation  
Precipitation 0.00 in 0.19 in 1.69 in (2004)
Month to date precipitation 2.71 1.13  
Year to date precipitation 36.77 30.87  
Sea Level Pressure  
Sea Level Pressure 30.29 in    
Wind  
Wind Speed 1 mph (SSE)    
Max Wind Speed 7 mph    
Max Gust Speed 8 mph    
Visibility 8 miles    
Events      
T = Trace of Precipitation, MM = Missing Value Source: NWS Daily Summary

Daily Weather History Graph

Daily Weather History Graph

Search for Another Location

Airport or City:

Trip Planner

Search our weather history database for the weather conditions in past years. The results will help you decide how hot, cold, wet, or windy it might be!

Date:

Astronomy

Dec. 06, 2012 Rise Set
Actual Time 7:31 AM PST 4:37 PM PST
Civil Twilight 6:59 AM PST 5:10 PM PST
Nautical Twilight 6:23 AM PST 5:45 PM PST
Astronomical Twilight 5:48 AM PST 6:20 PM PST
Moon No Moon Rise 12:17 PM PST (12/6)
Length of Visible Light 10h 10m
Length of Day
9h 06m
Waning Gibbous, 48% of the Moon is Illuminated
Dec 6
Waning Gibbous
Dec 13
New
Dec 19
First Quarter
Dec 28
Full
Jan 4
Last Quarter

Hourly Weather History & Observations

Time (PST) Temp. Windchill Dew Point Humidity Pressure Visibility Wind Dir Wind Speed Gust Speed Precip Events Conditions
12:53 AM 42.1 °F - 39.0 °F 89% 30.27 in 10.0 mi Calm Calm - N/A   Overcast
1:02 AM 42.8 °F - 39.2 °F 87% 30.26 in 10.0 mi Calm Calm - N/A   Overcast
1:53 AM 42.1 °F - 39.0 °F 89% 30.27 in 10.0 mi Calm Calm - N/A   Overcast
2:53 AM 39.9 °F - 37.9 °F 93% 30.28 in 10.0 mi Calm Calm - N/A   Mostly Cloudy
3:43 AM 39.2 °F - 37.4 °F 93% 30.26 in 9.0 mi Calm Calm - N/A   Partly Cloudy
3:53 AM 37.9 °F - 37.0 °F 97% 30.27 in 10.0 mi Calm Calm - N/A   Mostly Cloudy
4:09 AM 37.4 °F - 37.4 °F 100% 30.26 in 10.0 mi Calm Calm - N/A   Overcast
4:53 AM 39.9 °F - 37.9 °F 93% 30.27 in 6.0 mi Calm Calm - N/A   Overcast
5:21 AM 39.2 °F - 39.2 °F 100% 30.26 in 1.8 mi Calm Calm - N/A   Overcast
5:53 AM 39.9 °F - 39.0 °F 97% 30.28 in 1.0 mi Calm Calm - N/A   Overcast
6:03 AM 39.2 °F - 39.2 °F 100% 30.27 in 3.0 mi Calm Calm - N/A   Overcast
6:53 AM 39.9 °F 37.8 °F 39.0 °F 97% 30.28 in 3.0 mi SSE 3.5 mph - N/A   Overcast
7:53 AM 39.9 °F 36.7 °F 39.0 °F 97% 30.30 in 6.0 mi South 4.6 mph - N/A   Overcast
8:53 AM 39.9 °F - 39.0 °F 97% 30.31 in 4.0 mi Calm Calm - N/A   Overcast
9:53 AM 39.9 °F 36.7 °F 37.9 °F 93% 30.32 in 9.0 mi SE 4.6 mph - N/A   Overcast
10:53 AM 41.0 °F - 37.9 °F 89% 30.33 in 10.0 mi Calm Calm - N/A   Overcast
11:00 AM 41.0 °F 39.0 °F 37.4 °F 87% 30.31 in 10.0 mi ESE 3.5 mph - N/A   Overcast
11:53 AM 42.1 °F - 37.9 °F 85% 30.31 in 10.0 mi Calm Calm - N/A   Overcast
12:17 PM 42.8 °F - 37.4 °F 81% 30.29 in 10.0 mi Calm Calm - N/A   Mostly Cloudy
12:31 PM 42.8 °F - 37.4 °F 81% 30.28 in 10.0 mi Calm Calm - N/A   Partly Cloudy
12:53 PM 45.0 °F - 37.9 °F 76% 30.29 in 10.0 mi Calm Calm - N/A   Partly Cloudy
1:53 PM 46.0 °F - 39.0 °F 76% 30.28 in 10.0 mi Calm Calm - N/A   Overcast
2:53 PM 46.0 °F - 39.0 °F 76% 30.29 in 10.0 mi Calm Calm - N/A   Overcast
3:53 PM 45.0 °F - 39.9 °F 82% 30.30 in 10.0 mi Calm Calm - N/A   Overcast
4:53 PM 45.0 °F - 39.9 °F 82% 30.28 in 10.0 mi Calm Calm - N/A   Overcast
5:53 PM 43.0 °F - 39.0 °F 86% 30.27 in 10.0 mi Calm Calm - N/A   Partly Cloudy
6:53 PM 43.0 °F - 39.0 °F 86% 30.29 in 10.0 mi Calm Calm - N/A   Overcast
7:53 PM 41.0 °F - 39.0 °F 93% 30.29 in 9.0 mi Calm Calm - N/A   Mostly Cloudy
8:53 PM 39.9 °F - 37.9 °F 93% 30.30 in 10.0 mi Calm Calm - N/A   Partly Cloudy
9:53 PM 39.9 °F 37.8 °F 37.9 °F 93% 30.30 in 10.0 mi SE 3.5 mph - N/A   Overcast
10:53 PM 39.9 °F 35.8 °F 37.9 °F 93% 30.30 in 9.0 mi SSE 5.8 mph - N/A   Overcast
11:53 PM 39.9 °F 36.7 °F 37.9 °F 93% 30.31 in 10.0 mi South 4.6 mph - N/A   Overcast